WZZ32UD EPKK-LFLL

Flight info

Callsign WZZ32UD
Flight time 1h 52m
Altitude 36000
Route BABKO DCT VADEX DCT BABNI DCT DETSA DCT SRN DCT RONOP DCT GIGUS Z40 AMVAR
Aircraft A321/M-SDE1E2E3FGIJ1J4RWXY/LB1

Departure

Time 2026-05-08 08:25
Airport Kraków John Paul II International Airport (EPKK)

Arrival

Time 2026-05-08 10:18
Airport Lyon Saint-Exupéry Airport (LFLL)
Time Latitude Longitude Altitude Speed Heading
2026-05-08 07:44 50.07586 19.80160 790 ft 0 kts 347°
2026-05-08 08:17 50.07588 19.80160 789 ft 0 kts 347°
2026-05-08 08:18 50.07590 19.80159 789 ft 1 kts 347°
2026-05-08 08:19 50.07597 19.80157 789 ft 2 kts 347°
2026-05-08 08:19 50.07614 19.80154 789 ft 3 kts
2026-05-08 08:19 50.07633 19.80171 789 ft 3 kts 54°
2026-05-08 08:19 50.07640 19.80203 789 ft 3 kts 74°
2026-05-08 08:20 50.07644 19.80239 789 ft 3 kts 73°
2026-05-08 08:20 50.07652 19.80278 789 ft 4 kts 73°
2026-05-08 08:20 50.07659 19.80323 789 ft 4 kts 77°
2026-05-08 08:20 50.07671 19.80367 789 ft 4 kts 47°
2026-05-08 08:21 50.07699 19.80379 789 ft 4 kts
2026-05-08 08:21 50.07730 19.80372 789 ft 5 kts 342°
2026-05-08 08:21 50.07761 19.80362 789 ft 5 kts 352°
2026-05-08 08:21 50.07796 19.80353 789 ft 5 kts 349°
2026-05-08 08:22 50.07831 19.80342 789 ft 5 kts 348°
2026-05-08 08:22 50.07869 19.80329 789 ft 6 kts 348°
2026-05-08 08:22 50.07910 19.80315 789 ft 6 kts 347°
2026-05-08 08:22 50.07957 19.80298 789 ft 7 kts 346°
2026-05-08 08:23 50.08001 19.80254 789 ft 7 kts 304°
2026-05-08 08:23 50.08008 19.80178 789 ft 7 kts 268°
2026-05-08 08:23 50.08001 19.80109 789 ft 0 kts 258°
2026-05-08 08:24 50.07994 19.80055 789 ft 28 kts 258°
2026-05-08 08:25 50.07904 19.79361 789 ft 100 kts 258°
2026-05-08 08:25 50.07713 19.77998 792 ft 156 kts 259°
2026-05-08 08:25 50.07483 19.76298 1469 ft 158 kts 260°
2026-05-08 08:25 50.07244 19.74608 2326 ft 164 kts 259°
2026-05-08 08:26 50.06986 19.72768 2830 ft 184 kts 258°
2026-05-08 08:26 50.06695 19.70707 3252 ft 206 kts 258°
2026-05-08 08:26 50.06374 19.68423 3728 ft 222 kts 258°
2026-05-08 08:26 50.05915 19.66115 4365 ft 228 kts 239°
2026-05-08 08:27 50.04696 19.64579 5015 ft 233 kts 199°
2026-05-08 08:27 50.03082 19.64518 5663 ft 235 kts 172°
2026-05-08 08:27 50.01470 19.65010 6329 ft 238 kts 168°
2026-05-08 08:27 49.99785 19.65612 6633 ft 262 kts 167°
2026-05-08 08:28 49.97948 19.66288 7187 ft 277 kts 167°
2026-05-08 08:28 49.96058 19.66982 7997 ft 281 kts 168°
2026-05-08 08:28 49.94139 19.67669 8828 ft 285 kts 168°
2026-05-08 08:28 49.92194 19.68347 9644 ft 288 kts 169°
2026-05-08 08:29 49.90218 19.69003 10403 ft 291 kts 173°
2026-05-08 08:29 49.88197 19.69104 11120 ft 292 kts 189°
2026-05-08 08:29 49.86194 19.68354 11738 ft 298 kts 203°
2026-05-08 08:29 49.84289 19.66844 11871 ft 318 kts 211°
2026-05-08 08:30 49.82297 19.65098 12022 ft 339 kts 211°
2026-05-08 08:30 49.80195 19.63261 12345 ft 353 kts 211°
2026-05-08 08:30 49.75844 19.59497 13584 ft 362 kts 211°
2026-05-08 08:31 49.73638 19.57605 14202 ft 365 kts 211°
2026-05-08 08:31 49.71405 19.55693 14793 ft 368 kts 211°
2026-05-08 08:31 49.69153 19.53769 15392 ft 371 kts 211°
2026-05-08 08:31 49.66891 19.51837 16004 ft 373 kts 211°
2026-05-08 08:32 49.64609 19.49884 16607 ft 376 kts 211°
2026-05-08 08:32 49.62325 19.47878 17180 ft 379 kts 215°
2026-05-08 08:32 49.60250 19.45393 17756 ft 379 kts 226°
2026-05-08 08:32 49.58418 19.42454 18357 ft 381 kts 229°
2026-05-08 08:33 49.56600 19.39467 18881 ft 384 kts 229°
2026-05-08 08:33 49.54764 19.36461 19420 ft 386 kts 229°
2026-05-08 08:33 49.52915 19.33441 19927 ft 388 kts 229°
2026-05-08 08:33 49.51029 19.30370 20451 ft 391 kts 229°
2026-05-08 08:34 49.49159 19.27332 20945 ft 393 kts 229°
2026-05-08 08:34 49.47274 19.24271 21379 ft 395 kts 229°
2026-05-08 08:34 49.45378 19.21198 21806 ft 397 kts 229°
2026-05-08 08:34 49.43478 19.18117 22200 ft 399 kts 229°
2026-05-08 08:35 49.41566 19.15019 22589 ft 401 kts 229°
2026-05-08 08:35 49.39665 19.11944 22958 ft 403 kts 229°
2026-05-08 08:35 49.37709 19.08785 23341 ft 405 kts 229°
2026-05-08 08:35 49.35765 19.05653 23699 ft 407 kts 229°
2026-05-08 08:36 49.33807 19.02502 24026 ft 408 kts 229°
2026-05-08 08:36 49.31842 18.99342 24339 ft 410 kts 229°
2026-05-08 08:36 49.29872 18.96173 24656 ft 411 kts 229°
2026-05-08 08:36 49.27897 18.93001 24977 ft 412 kts 229°
2026-05-08 08:37 49.25915 18.89813 25299 ft 413 kts 230°
2026-05-08 08:37 49.24130 18.86384 25601 ft 412 kts 238°
2026-05-08 08:37 49.22508 18.82752 25920 ft 414 kts 238°
2026-05-08 08:37 49.20882 18.79113 26226 ft 415 kts 238°
2026-05-08 08:38 49.19251 18.75471 26540 ft 416 kts 238°
2026-05-08 08:38 49.17608 18.71816 26836 ft 417 kts 238°
2026-05-08 08:38 49.15957 18.68156 27131 ft 418 kts 237°
2026-05-08 08:38 49.14282 18.64448 27400 ft 420 kts 237°
2026-05-08 08:39 49.12616 18.60771 27675 ft 421 kts 238°
2026-05-08 08:39 49.10949 18.57099 27962 ft 422 kts 238°
2026-05-08 08:39 49.09270 18.53405 28258 ft 423 kts 238°
2026-05-08 08:39 49.07589 18.49710 28550 ft 424 kts 238°
2026-05-08 08:40 49.05906 18.46014 28827 ft 425 kts 238°
2026-05-08 08:40 49.04224 18.42320 29183 ft 424 kts 238°
2026-05-08 08:40 49.02545 18.38628 29594 ft 422 kts 238°
2026-05-08 08:40 49.00874 18.34953 30010 ft 420 kts 238°
2026-05-08 08:41 48.99208 18.31309 30355 ft 419 kts 238°
2026-05-08 08:41 48.98109 18.28913 30566 ft 418 kts 238°
2026-05-08 08:41 48.96487 18.25241 30862 ft 415 kts 243°
2026-05-08 08:41 48.95175 18.21346 31149 ft 413 kts 246°
2026-05-08 08:42 48.93918 18.17427 31432 ft 412 kts 246°
2026-05-08 08:42 48.92659 18.13516 31736 ft 411 kts 246°
2026-05-08 08:42 48.91399 18.09617 32022 ft 410 kts 246°
2026-05-08 08:42 48.90124 18.05684 32326 ft 409 kts 246°
2026-05-08 08:43 48.88884 18.01865 32615 ft 408 kts 246°
2026-05-08 08:43 48.87615 17.97959 32895 ft 407 kts 246°
2026-05-08 08:43 48.86365 17.94114 33174 ft 406 kts 246°
2026-05-08 08:43 48.85112 17.90276 33434 ft 405 kts 245°
2026-05-08 08:44 48.83862 17.86460 33700 ft 404 kts 246°
2026-05-08 08:44 48.82611 17.82647 33975 ft 403 kts 246°
2026-05-08 08:44 48.81363 17.78848 34206 ft 402 kts 245°
2026-05-08 08:44 48.80115 17.75063 34389 ft 402 kts 245°
2026-05-08 08:45 48.78867 17.71270 34541 ft 402 kts 245°
2026-05-08 08:45 48.77619 17.67472 34691 ft 403 kts 245°
2026-05-08 08:45 48.76371 17.63670 34839 ft 403 kts 245°
2026-05-08 08:45 48.75123 17.59870 34987 ft 403 kts 245°
2026-05-08 08:46 48.73871 17.56067 35139 ft 404 kts 245°
2026-05-08 08:46 48.72610 17.52254 35288 ft 404 kts 245°
2026-05-08 08:46 48.71347 17.48450 35429 ft 405 kts 245°
2026-05-08 08:46 48.70078 17.44640 35566 ft 405 kts 245°
2026-05-08 08:47 48.68807 17.40830 35710 ft 406 kts 245°
2026-05-08 08:47 48.67536 17.37021 35845 ft 406 kts 245°
2026-05-08 08:47 48.66261 17.33204 36002 ft 406 kts 245°
2026-05-08 08:47 48.64982 17.29381 36069 ft 408 kts 244°
2026-05-08 08:48 48.62378 17.21611 36079 ft 415 kts 244°
2026-05-08 08:48 48.59752 17.13767 36082 ft 421 kts 244°
2026-05-08 08:49 48.57075 17.05823 36088 ft 427 kts 244°
2026-05-08 08:49 48.54365 16.97802 36091 ft 431 kts 244°
2026-05-08 08:50 48.51629 16.89715 36090 ft 435 kts 244°
2026-05-08 08:50 48.48860 16.81558 36093 ft 439 kts 244°
2026-05-08 08:51 48.46053 16.73352 36134 ft 441 kts 243°
2026-05-08 08:51 48.44648 16.69278 36441 ft 435 kts 243°
2026-05-08 08:51 48.43251 16.65263 36757 ft 430 kts 242°
2026-05-08 08:52 48.41863 16.61306 37042 ft 425 kts 242°
2026-05-08 08:52 48.40484 16.57406 37344 ft 420 kts 242°
2026-05-08 08:52 48.39115 16.53559 37650 ft 414 kts 242°
2026-05-08 08:52 48.37741 16.49723 37983 ft 408 kts 241°
2026-05-08 08:53 48.36401 16.46004 38310 ft 401 kts 241°
2026-05-08 08:53 48.35080 16.42355 38627 ft 394 kts 241°
2026-05-08 08:53 48.33775 16.38765 38897 ft 387 kts 241°
2026-05-08 08:53 48.32499 16.35265 39126 ft 379 kts 241°
2026-05-08 08:54 48.31244 16.31831 39340 ft 370 kts 241°
2026-05-08 08:54 48.30012 16.28469 39456 ft 365 kts 241°
2026-05-08 08:54 48.28782 16.25116 39307 ft 368 kts 241°
2026-05-08 08:54 48.27532 16.21717 39025 ft 375 kts 241°
2026-05-08 08:55 48.26265 16.18280 38917 ft 376 kts 240°
2026-05-08 08:55 48.25005 16.14869 39020 ft 371 kts 240°
2026-05-08 08:55 48.23766 16.11522 39180 ft 365 kts 240°
2026-05-08 08:55 48.22534 16.08202 39134 ft 365 kts 240°
2026-05-08 08:56 48.21291 16.04857 38924 ft 370 kts 240°
2026-05-08 08:56 48.20030 16.01474 38765 ft 372 kts 240°
2026-05-08 08:56 48.17523 15.94766 38932 ft 364 kts 240°
2026-05-08 08:57 48.15045 15.88162 38808 ft 366 kts 240°
2026-05-08 08:57 48.13774 15.84790 38630 ft 369 kts 240°
2026-05-08 08:57 48.12514 15.81451 38609 ft 368 kts 240°
2026-05-08 08:58 48.11261 15.78139 38719 ft 363 kts 240°
2026-05-08 08:58 48.10019 15.74860 38761 ft 361 kts 240°
2026-05-08 08:58 48.08776 15.71587 38645 ft 363 kts 240°
2026-05-08 08:58 48.07550 15.68262 38239 ft 372 kts 247°
2026-05-08 08:59 48.06629 15.64529 37392 ft 393 kts 252°
2026-05-08 08:59 48.05797 15.60558 36997 ft 404 kts 252°
2026-05-08 08:59 48.03958 15.52534 36774 ft 414 kts 246°
2026-05-08 09:00 48.02714 15.48627 36659 ft 420 kts 243°
2026-05-08 09:00 48.01302 15.44759 36535 ft 426 kts 241°
2026-05-08 09:00 47.99813 15.40914 36407 ft 431 kts 240°
2026-05-08 09:00 47.98306 15.37063 36274 ft 424 kts 241°
2026-05-08 09:01 47.96862 15.33295 36083 ft 415 kts 242°
2026-05-08 09:01 47.95475 15.29566 36099 ft 410 kts 242°
2026-05-08 09:01 47.92775 15.22084 36106 ft 409 kts 243°
2026-05-08 09:02 47.90085 15.14569 36106 ft 409 kts 243°
2026-05-08 09:02 47.87379 15.07105 36102 ft 409 kts 242°
2026-05-08 09:03 47.84663 14.99673 36102 ft 409 kts 242°
2026-05-08 09:03 47.81941 14.92234 36108 ft 409 kts 242°
2026-05-08 09:04 47.79241 14.84878 36111 ft 410 kts 242°
2026-05-08 09:04 47.76526 14.77499 36119 ft 410 kts 242°
2026-05-08 09:05 47.73779 14.70060 36119 ft 410 kts 242°
2026-05-08 09:05 47.71036 14.62642 36126 ft 410 kts 242°
2026-05-08 09:06 47.68291 14.55235 36127 ft 409 kts 242°
2026-05-08 09:06 47.65544 14.47837 36130 ft 409 kts 242°
2026-05-08 09:07 47.62792 14.40454 36133 ft 409 kts 242°
2026-05-08 09:07 47.60022 14.33054 36127 ft 407 kts 242°
2026-05-08 09:08 47.57269 14.25720 36120 ft 407 kts 242°
2026-05-08 09:08 47.54516 14.18402 36119 ft 406 kts 242°
2026-05-08 09:09 47.51770 14.11117 36115 ft 405 kts 242°
2026-05-08 09:09 47.49019 14.03847 36112 ft 405 kts 242°
2026-05-08 09:10 47.46267 13.96589 36113 ft 404 kts 241°
2026-05-08 09:10 47.43517 13.89369 36108 ft 404 kts 241°
2026-05-08 09:11 47.40761 13.82150 36110 ft 403 kts 241°
2026-05-08 09:11 47.38010 13.74940 36113 ft 403 kts 241°
2026-05-08 09:12 47.35703 13.68913 36108 ft 403 kts 241°
2026-05-08 09:12 47.32949 13.61736 36104 ft 402 kts 241°
2026-05-08 09:13 47.30189 13.54577 36105 ft 402 kts 241°
2026-05-08 09:13 47.27419 13.47426 36102 ft 401 kts 241°
2026-05-08 09:14 47.24660 13.40290 36102 ft 402 kts 241°
2026-05-08 09:14 47.21887 13.33150 36101 ft 402 kts 240°
2026-05-08 09:15 47.19114 13.26031 36102 ft 401 kts 240°
2026-05-08 09:15 47.16320 13.18866 36101 ft 401 kts 240°
2026-05-08 09:16 47.13544 13.11760 36097 ft 401 kts 240°
2026-05-08 09:16 47.10754 13.04650 36100 ft 401 kts 240°
2026-05-08 09:17 47.07966 12.97570 36099 ft 401 kts 240°
2026-05-08 09:17 47.05170 12.90489 36100 ft 401 kts 240°
2026-05-08 09:18 47.02367 12.83411 36100 ft 401 kts 240°
2026-05-08 09:18 46.99563 12.76346 36103 ft 401 kts 240°
2026-05-08 09:19 46.96758 12.69281 36100 ft 401 kts 240°
2026-05-08 09:19 46.93952 12.62229 36107 ft 401 kts 240°
2026-05-08 09:20 46.91115 12.55138 36119 ft 401 kts 239°
2026-05-08 09:20 46.88289 12.48100 36129 ft 401 kts 239°
2026-05-08 09:21 46.85465 12.41073 36138 ft 401 kts 239°
2026-05-08 09:23 46.76093 12.16061 36155 ft 402 kts 244°
2026-05-08 09:23 46.73731 12.08676 36146 ft 402 kts 244°
2026-05-08 09:24 46.71304 12.01340 36137 ft 402 kts 243°
2026-05-08 09:24 46.68825 11.94014 36129 ft 403 kts 243°
2026-05-08 09:25 46.66339 11.86705 36114 ft 403 kts 243°
2026-05-08 09:25 46.63846 11.79351 36103 ft 403 kts 243°
2026-05-08 09:26 46.61360 11.72027 36093 ft 403 kts 243°
2026-05-08 09:26 46.58873 11.64726 36099 ft 404 kts 243°
2026-05-08 09:27 46.56371 11.57421 36098 ft 404 kts 243°
2026-05-08 09:27 46.53867 11.50108 36102 ft 404 kts 243°
2026-05-08 09:28 46.51363 11.42818 36097 ft 404 kts 243°
2026-05-08 09:28 46.48845 11.35527 36097 ft 404 kts 243°
2026-05-08 09:29 46.46317 11.28227 36099 ft 404 kts 243°
2026-05-08 09:29 46.43795 11.20947 36100 ft 404 kts 242°
2026-05-08 09:30 46.41260 11.13652 36156 ft 405 kts 242°
2026-05-08 09:30 46.38719 11.06378 36158 ft 405 kts 242°
2026-05-08 09:31 46.36171 10.99093 36153 ft 405 kts 242°
2026-05-08 09:31 46.33646 10.91891 36153 ft 405 kts 242°
2026-05-08 09:32 46.31087 10.84618 36148 ft 406 kts 242°
2026-05-08 09:32 46.28525 10.77345 36145 ft 406 kts 242°
2026-05-08 09:33 46.25963 10.70074 36140 ft 406 kts 242°
2026-05-08 09:33 46.23390 10.62805 36132 ft 406 kts 242°
2026-05-08 09:34 46.20810 10.55546 36125 ft 406 kts 242°
2026-05-08 09:34 46.18222 10.48295 36125 ft 406 kts 242°
2026-05-08 09:35 46.15635 10.41050 36117 ft 407 kts 242°
2026-05-08 09:35 46.13033 10.33801 36108 ft 407 kts 242°
2026-05-08 09:36 46.10436 10.26562 36095 ft 407 kts 242°
2026-05-08 09:36 46.07810 10.19275 36095 ft 407 kts 241°
2026-05-08 09:37 46.05190 10.12045 36091 ft 407 kts 241°
2026-05-08 09:37 46.02569 10.04805 36086 ft 408 kts 241°
2026-05-08 09:38 45.99948 9.97577 36090 ft 408 kts 242°
2026-05-08 09:38 45.97324 9.90353 36094 ft 408 kts 241°
2026-05-08 09:39 45.94678 9.83124 36095 ft 408 kts 241°
2026-05-08 09:39 45.92036 9.75906 36106 ft 408 kts 241°
2026-05-08 09:40 45.89389 9.68680 36116 ft 409 kts 241°
2026-05-08 09:40 45.86737 9.61468 36106 ft 409 kts 241°
2026-05-08 09:41 45.84073 9.54254 36114 ft 409 kts 241°
2026-05-08 09:41 45.81387 9.46999 36113 ft 409 kts 241°
2026-05-08 09:42 45.78716 9.39798 36110 ft 409 kts 240°
2026-05-08 09:42 45.76038 9.32601 36080 ft 409 kts 240°
2026-05-08 09:43 45.73812 9.26636 36081 ft 409 kts 240°
2026-05-08 09:43 45.71123 9.19444 36086 ft 409 kts 240°
2026-05-08 09:44 45.68429 9.12258 36103 ft 409 kts 240°
2026-05-08 09:44 45.65709 9.05040 36115 ft 410 kts 240°
2026-05-08 09:45 45.63537 8.97511 36121 ft 412 kts 249°
2026-05-08 09:45 45.61704 8.89757 36124 ft 412 kts 249°
2026-05-08 09:46 45.59861 8.82020 36129 ft 412 kts 249°
2026-05-08 09:46 45.58011 8.74278 36126 ft 412 kts 249°
2026-05-08 09:47 45.56144 8.66524 36126 ft 412 kts 249°
2026-05-08 09:47 45.54279 8.58783 36123 ft 413 kts 249°
2026-05-08 09:48 45.52400 8.51034 36126 ft 414 kts 249°
2026-05-08 09:48 45.50515 8.43273 36119 ft 414 kts 249°
2026-05-08 09:49 45.48630 8.35517 36115 ft 414 kts 249°
2026-05-08 09:49 45.46721 8.27711 36107 ft 415 kts 249°
2026-05-08 09:50 45.44818 8.19949 36100 ft 415 kts 249°
2026-05-08 09:50 45.42910 8.12192 36097 ft 415 kts 249°
2026-05-08 09:51 45.40994 8.04448 36101 ft 416 kts 249°
2026-05-08 09:51 45.39067 7.96681 36109 ft 416 kts 249°
2026-05-08 09:52 45.37134 7.88921 36117 ft 417 kts 249°
2026-05-08 09:52 45.35198 7.81152 36124 ft 417 kts 249°
2026-05-08 09:53 45.33255 7.73384 36129 ft 417 kts 249°
2026-05-08 09:53 45.31304 7.65612 36128 ft 418 kts 249°
2026-05-08 09:54 45.29351 7.57844 36118 ft 418 kts 249°
2026-05-08 09:54 45.28368 7.53956 35720 ft 420 kts 249°
2026-05-08 09:54 45.27361 7.49997 34763 ft 430 kts 248°
2026-05-08 09:54 45.26333 7.45963 34135 ft 429 kts 248°
2026-05-08 09:55 45.25320 7.41980 33586 ft 426 kts 248°
2026-05-08 09:55 45.24320 7.38052 33130 ft 421 kts 248°
2026-05-08 09:55 45.23329 7.34167 32670 ft 417 kts 248°
2026-05-08 09:55 45.22346 7.30319 32191 ft 413 kts 248°
2026-05-08 09:56 45.21373 7.26513 31745 ft 409 kts 248°
2026-05-08 09:56 45.20409 7.22737 31285 ft 405 kts 249°
2026-05-08 09:56 45.19732 7.18870 30817 ft 404 kts 259°
2026-05-08 09:56 45.19618 7.14898 30326 ft 406 kts 270°
2026-05-08 09:57 45.21039 7.07183 29315 ft 404 kts 288°
2026-05-08 09:57 45.22111 7.03513 28824 ft 401 kts 288°
2026-05-08 09:57 45.23166 6.99867 28357 ft 398 kts 288°
2026-05-08 09:58 45.24207 6.96243 27885 ft 395 kts 288°
2026-05-08 09:58 45.25237 6.92639 27435 ft 392 kts 288°
2026-05-08 09:58 45.26256 6.89062 26972 ft 389 kts 289°
2026-05-08 09:58 45.27265 6.85516 26531 ft 386 kts 289°
2026-05-08 09:59 45.28267 6.81992 26098 ft 384 kts 289°
2026-05-08 09:59 45.29263 6.78491 25676 ft 381 kts 289°
2026-05-08 09:59 45.30271 6.74962 25249 ft 379 kts 289°
2026-05-08 09:59 45.31256 6.71505 24832 ft 377 kts 290°
2026-05-08 10:00 45.32237 6.68053 24410 ft 376 kts 290°
2026-05-08 10:00 45.33211 6.64615 24007 ft 374 kts 290°
2026-05-08 10:00 45.34182 6.61189 23545 ft 374 kts 290°
2026-05-08 10:00 45.35150 6.57768 23083 ft 371 kts 290°
2026-05-08 10:01 45.36107 6.54378 22641 ft 369 kts 290°
2026-05-08 10:01 45.37054 6.51007 22199 ft 366 kts 290°
2026-05-08 10:01 45.37974 6.47649 21775 ft 362 kts 286°
2026-05-08 10:01 45.38515 6.44173 21343 ft 358 kts 275°
2026-05-08 10:02 45.38548 6.40667 20924 ft 353 kts 263°
2026-05-08 10:02 45.38181 6.37235 20500 ft 350 kts 260°
2026-05-08 10:02 45.37781 6.33825 20078 ft 348 kts 260°
2026-05-08 10:02 45.37388 6.30440 19667 ft 346 kts 260°
2026-05-08 10:03 45.36999 6.27070 19244 ft 345 kts 260°
2026-05-08 10:03 45.36609 6.23718 18829 ft 343 kts 260°
2026-05-08 10:03 45.36219 6.20383 18417 ft 340 kts 260°
2026-05-08 10:03 45.35831 6.17078 17968 ft 338 kts 260°
2026-05-08 10:04 45.35445 6.13792 17570 ft 335 kts 260°
2026-05-08 10:04 45.35064 6.10546 17166 ft 332 kts 260°
2026-05-08 10:04 45.34685 6.07314 16769 ft 330 kts 260°
2026-05-08 10:04 45.34307 6.04107 16386 ft 329 kts 259°
2026-05-08 10:05 45.33920 6.00872 15996 ft 327 kts 259°
2026-05-08 10:05 45.33535 5.97692 15624 ft 326 kts 259°
2026-05-08 10:05 45.33153 5.94521 15245 ft 324 kts 259°
2026-05-08 10:05 45.32776 5.91376 14875 ft 323 kts 259°
2026-05-08 10:06 45.32401 5.88236 14512 ft 322 kts 259°
2026-05-08 10:06 45.32027 5.85111 14154 ft 320 kts 259°
2026-05-08 10:06 45.31653 5.82001 13792 ft 319 kts 259°
2026-05-08 10:06 45.31279 5.78905 13394 ft 317 kts 259°
2026-05-08 10:07 45.30906 5.75828 13001 ft 316 kts 259°
2026-05-08 10:07 45.30535 5.72761 12606 ft 314 kts 259°
2026-05-08 10:07 45.30163 5.69713 12222 ft 313 kts 259°
2026-05-08 10:07 45.29796 5.66679 11842 ft 311 kts 259°
2026-05-08 10:08 45.29433 5.63657 11465 ft 310 kts 258°
2026-05-08 10:08 45.29066 5.60650 11089 ft 308 kts 258°
2026-05-08 10:08 45.28750 5.57655 10710 ft 307 kts 267°
2026-05-08 10:08 45.29090 5.54672 10349 ft 309 kts 290°
2026-05-08 10:09 45.30244 5.52097 9987 ft 312 kts 314°
2026-05-08 10:09 45.32025 5.50386 9599 ft 311 kts 338°
2026-05-08 10:09 45.34093 5.49499 9210 ft 309 kts 340°
2026-05-08 10:09 45.35979 5.48028 8816 ft 305 kts 319°
2026-05-08 10:10 45.37407 5.45857 8508 ft 298 kts 303°
2026-05-08 10:10 45.38499 5.43397 8202 ft 291 kts 300°
2026-05-08 10:10 45.39580 5.40991 7891 ft 287 kts 301°
2026-05-08 10:10 45.40663 5.38630 7596 ft 284 kts 302°
2026-05-08 10:11 45.41747 5.36285 7296 ft 282 kts 302°
2026-05-08 10:11 45.42823 5.33953 7004 ft 283 kts 302°
2026-05-08 10:11 45.43901 5.31608 6706 ft 282 kts 301°
2026-05-08 10:11 45.44969 5.29279 6413 ft 279 kts 302°
2026-05-08 10:12 45.46022 5.26977 6093 ft 274 kts 302°
2026-05-08 10:12 45.47041 5.24741 5780 ft 265 kts 302°
2026-05-08 10:12 45.48030 5.22564 5464 ft 257 kts 302°
2026-05-08 10:12 45.48985 5.20465 5217 ft 249 kts 302°
2026-05-08 10:13 45.49919 5.18410 4919 ft 245 kts 301°
2026-05-08 10:13 45.50833 5.16396 4603 ft 239 kts 302°
2026-05-08 10:13 45.51720 5.14437 4288 ft 231 kts 302°
2026-05-08 10:13 45.52742 5.12765 4013 ft 218 kts 321°
2026-05-08 10:14 45.53601 5.11996 3831 ft 214 kts 335°
2026-05-08 10:14 45.54996 5.11430 3515 ft 206 kts 355°
2026-05-08 10:14 45.56403 5.11269 3258 ft 201 kts 356°
2026-05-08 10:14 45.57766 5.11108 2948 ft 190 kts 356°
2026-05-08 10:15 45.59023 5.10956 2811 ft 175 kts 355°
2026-05-08 10:15 45.60210 5.10813 2810 ft 169 kts 355°
2026-05-08 10:15 45.61376 5.10671 2818 ft 165 kts 356°
2026-05-08 10:15 45.62491 5.10534 2809 ft 158 kts 355°
2026-05-08 10:16 45.63585 5.10409 2650 ft 156 kts 355°
2026-05-08 10:16 45.64653 5.10268 2404 ft 154 kts 353°
2026-05-08 10:16 45.65717 5.10123 2091 ft 152 kts 355°
2026-05-08 10:16 45.66765 5.10018 1829 ft 151 kts 354°
2026-05-08 10:17 45.67809 5.09883 1548 ft 151 kts 354°
2026-05-08 10:17 45.68873 5.09751 1294 ft 151 kts 355°
2026-05-08 10:17 45.69913 5.09609 1097 ft 153 kts 355°
2026-05-08 10:17 45.70970 5.09487 886 ft 153 kts 356°
2026-05-08 10:18 45.72002 5.09359 808 ft 127 kts 355°
2026-05-08 10:18 45.72456 5.09288 805 ft 36 kts 338°
2026-05-08 10:18 45.72594 5.09172 803 ft 8 kts 330°
2026-05-08 10:18 45.72630 5.09137 802 ft 5 kts 323°
2026-05-08 10:19 45.72642 5.09124 802 ft 0 kts 322°
2026-05-08 10:20 45.72656 5.09109 802 ft 5 kts 325°
2026-05-08 10:20 45.72705 5.09070 802 ft 11 kts 336°
2026-05-08 10:20 45.72797 5.09047 802 ft 16 kts 355°
2026-05-08 10:21 45.72923 5.09025 801 ft 20 kts 340°
2026-05-08 10:21 45.72958 5.08845 799 ft 22 kts 266°
2026-05-08 10:21 45.72944 5.08615 801 ft 24 kts 265°
2026-05-08 10:21 45.72931 5.08448 802 ft 16 kts 253°
2026-05-08 10:22 45.72874 5.08357 802 ft 0 kts 200°
2026-05-08 10:22 45.72871 5.08356 802 ft 0 kts 197°
2026-05-08 10:22 45.72868 5.08355 802 ft 0 kts 195°
2026-05-08 10:22 45.72858 5.08353 802 ft 3 kts 187°
2026-05-08 10:23 45.72831 5.08355 802 ft 5 kts 174°
2026-05-08 10:23 45.72785 5.08359 802 ft 8 kts 176°
2026-05-08 10:23 45.72710 5.08368 802 ft 13 kts 175°
2026-05-08 10:23 45.72601 5.08381 802 ft 18 kts 175°
2026-05-08 10:24 45.72457 5.08399 802 ft 23 kts 175°
2026-05-08 10:24 45.72285 5.08418 802 ft 26 kts 175°
2026-05-08 10:24 45.72102 5.08442 802 ft 21 kts 175°
2026-05-08 10:24 45.71950 5.08460 802 ft 23 kts 175°
2026-05-08 10:25 45.71844 5.08472 802 ft 12 kts 175°
2026-05-08 10:25 45.71753 5.08483 802 ft 15 kts 175°
2026-05-08 10:25 45.71681 5.08398 802 ft 16 kts 261°
2026-05-08 10:25 45.71665 5.08304 802 ft 5 kts 223°
2026-05-08 10:26 45.71628 5.08279 802 ft 7 kts 199°
2026-05-08 10:26 45.71603 5.08269 802 ft 1 kts 195°
2026-05-08 10:26 45.71598 5.08267 802 ft 0 kts 195°